Regional Weather Roundup
Issued by NWS Green Bay, WI

Home | Current Version | Previous Version | Text Only | Print | Product List | Glossary On
Versions: 1 2 3 4 5 6 7 8 9 10 11 12 13 14 15 16 17 18 19 20 21 22 23 24 25 26 27 28 29 30 31 32 33 34 35 36 37 38 39 40 41 42 43 44 45 46 47 48 49 50
000
ASUS43 KGRB 192210
RWRGRB

NORTH-CENTRAL AND NORTHEAST WISCONSIN REGIONAL WEATHER ROUNDUP
NATIONAL WEATHER SERVICE GREEN BAY WI
500 PM CDT FRI SEP 19 2014

WIZ005-009-010>012-018-019-192300-
NORTH CENTRAL WISCONSIN

CITY           SKY/WX    TMP DP  RH WIND       PRES   REMARKS
IRONWOOD       CLOUDY    66  55  68 S9        29.68F
MANITOWISH WTR CLOUDY    65  54  67 SW12G22   29.76R
ARBOR VITAE    CLOUDY    67  54  63 SW14G22   29.76R
EAGLE RIVER    PTSUNNY   66  50  55 SW13G20   29.75S
LAND O LAKES   PTSUNNY   66  51  57 SW8       29.75R
RHINELANDER    PTSUNNY   66  52  60 SW10G29   29.77F
PHILLIPS       CLOUDY    65  55  68 SW8       29.77R
ANTIGO         MOSUNNY   67  53  61 S28G36    29.79F
TOMAHAWK       PTSUNNY   66  53  64 S7        29.78R
MERRILL        MOSUNNY   68  54  60 S20G25    29.77F
$$

WIZ013-073-192300-
NORTHEAST WISCONSIN

CITY           SKY/WX    TMP DP  RH WIND       PRES   REMARKS
IRON MOUNTAIN  PTSUNNY   67  51  56 S13G26    29.77F
MARINETTE      PTSUNNY   68  55  64 S15G24    29.83F
OCONTO         PTSUNNY   71  51  49 S16       29.84F
$$

WIZ017-030-035>037-045-192300-
CENTRAL WISCONSIN

CITY           SKY/WX    TMP DP  RH WIND       PRES   REMARKS
MEDFORD        PTSUNNY   68  54  61 S15       29.78R
WAUSAU         MOSUNNY   69  53  56 S22       29.77F
MOSINEE        MOSUNNY   70  54  56 S24G32    29.80F
MARSHFIELD     MOSUNNY   71  54  54 S25G36    29.77F
WISC RAPIDS    MOSUNNY   73  53  49 S16G36    29.82F
STEVENS POINT  MOSUNNY   70  51  50 S23G31    29.81F
WAUPACA        MOSUNNY   73  52  46 S16G29    29.84F
SHAWANO        PTSUNNY   73  51  45 S9G17     29.84F
CLINTONVILLE   MOSUNNY   72  50  46 S17G31    29.84F
$$

WIZ038-039-048-051-192300-
FOX VALLEY

CITY           SKY/WX    TMP DP  RH WIND       PRES   REMARKS
NWS GREEN BAY  MOSUNNY   72  51  47 S16G28    29.87F
APPLETON       PTSUNNY   72  48  43 S22       29.89F
OSHKOSH        MOSUNNY   71  50  47 S23G30    29.89F
FOND DU LAC    MOSUNNY   72  49  44 S22       29.91F
$$

WIZ022-050-052-192300-
EAST CENTRAL WISCONSIN

CITY           SKY/WX    TMP DP  RH WIND       PRES   REMARKS
STURGEON BAY   PTSUNNY   61  54  77 S22G33    29.89R
MANITOWOC      MOSUNNY   63  56  78 S23G32    29.92F
SHEBOYGAN      MOSUNNY   66  52  60 S17G31    29.94F
$$

LMZ563-521-522-541>543-192300-
LAKESHORE

STATION/POSITION TIME  TEMP    WIND        PRES    VSBY  WAVE
                       AIR SEA DIR/SP/G                  HT/PER
                 (UTC) (F)     (DEG/KT/KT) (MB)    (MI)  (FT/S)
SHEBOYGAN LKSHOR 2200   59 56  180/ 21/ 23 1014.0F
KEWAUNEE LKSHORE 2200   58     180/ 19/ 21 1012.2F
TWO RIVERS CG    2100   58 61              1014.1      6   3
NORTHPORT PIER   2200   61     170/ 13/ 25 1011.5F
N MID LAKE BUOY  2100   60 58  190/ 25/ 29 1012.4F         6/ 7
S GREEN BAY BUOY 2200   64     VRB 16/ 17  1011.9F
STURGEON BAY CG  2100   58 55  180/ 16     1014.1      6   5
CHAMBERS ISLAND  2200   63     160/ 12/ 20 1011.2S
MENOMINEE LKSHOR 2200   63     170/ 11/ 15 1011.5S
$$


USA.gov is the U.S. government's official web portal to all federal, state and local government web resources and services.